Flag for France Weather past 2 weeks in Bordeaux, France

Now
68 °F

Partly sunny.


Feels Like: 68 °F
Forecast: 51 / 77 °F
Wind: 7 mph from West

Location: Bordeaux / Merignac

Current Time: Aug 23, 2014 at 12:06:10 PM

Latest Report: Aug 23, 2014 at 11:30 AM


Visibility: N/A

Pressure: 30.12 "Hg

Humidity: 69%

Dew point: 57 °F

Location of BordeauxLocation

Historic Weather in Bordeaux — Graph

°F

Bordeaux temperature yesterday

Maximum temperature yesterday: 73 °F (at 4:30 PM)
Minimum temperature yesterday: 52 °F (at 7:00 AM)
Average temperature yesterday: 63 °F

Past Weeks' High & Low Weather Summary

 TemperatureHumidityPressure
High82 °F (Aug 8, 2:30 PM)100% (Aug 9, 6:30 AM)30.27 "Hg (Aug 9, 6:30 AM)
Low50 °F (Aug 21, 5:30 AM)38% (Aug 22, 4:30 PM)29.71 "Hg (Aug 13, 2:30 AM)
Average65 °F74%30.03 "Hg
* Reported Aug 8 11:00 AM — Aug 23 11:00 AM, Bordeaux, Weather by CustomWeather, © 2014

Note: Actual official high and low records may vary slightly from our data, if they occured in-between our weather recording intervals... More about our weather records

Advertising

Bordeaux weather history for previous 24 hours

 ConditionsComfort  
Time TempWeatherWind HumidityBarometerVisibility
11:00 AM
Aug 23
66 °FClear.7 mph78%30.12 "HgN/A
10:30 AM64 °FClear.7 mph83%30.12 "HgN/A
10:00 AM63 °FOvercast.9 mph88%30.09 "HgN/A
9:30 AM63 °FOvercast.8 mph83%30.09 "HgN/A
9:00 AM61 °FOvercast.7 mph88%30.09 "HgN/A
8:30 AM59 °FClear.7 mph94%30.09 "HgN/A
8:00 AM59 °FClear.7 mph94%30.09 "HgN/A
7:30 AM57 °FPartly cloudy.7 mph94%30.09 "HgN/A
7:00 AM59 °FPartly cloudy.6 mph88%30.09 "HgN/A
6:30 AM57 °FPassing clouds.5 mph94%30.09 "HgN/A
6:00 AM57 °FMostly cloudy.3 mph88%30.09 "HgN/A
5:30 AM59 °FOvercast.7 mph88%30.09 "HgN/A
5:00 AM59 °FMostly cloudy.2 mph82%30.09 "HgN/A
4:30 AM57 °FMostly cloudy.2 mph82%30.09 "HgN/A
4:00 AM57 °FClear.3 mph82%30.09 "HgN/A
3:30 AM59 °FClear.No wind82%30.09 "HgN/A
2:30 AM59 °FPartly cloudy.5 mph77%30.09 "HgN/A
2:00 AM57 °FClear.2 mph82%30.09 "HgN/A
1:30 AM57 °FClear.1 mph82%30.09 "HgN/A
1:00 AM55 °FClear.2 mph88%30.09 "HgN/A
12:30 AM57 °FClear.1 mph82%30.09 "HgN/A
12:00 AM57 °FClear.3 mph82%30.09 "HgN/A
11:30 PM
Aug 22
59 °FClear.3 mph77%30.09 "HgN/A
11:00 PM61 °FClear.3 mph72%30.09 "HgN/A
10:30 PM61 °FClear.3 mph72%30.09 "HgN/A
10:00 PM63 °FClear.5 mph68%30.09 "HgN/A
9:30 PM64 °FClear.5 mph64%30.09 "HgN/A
9:00 PM64 °FClear.7 mph64%30.07 "HgN/A
8:30 PM66 °FClear.8 mph60%30.07 "HgN/A
8:00 PM68 °FClear.12 mph53%30.07 "HgN/A
7:30 PM68 °FPassing clouds.10 mph53%30.07 "HgN/A
7:00 PM70 °FClear.12 mph50%30.07 "HgN/A
6:30 PM70 °FClear.13 mph50%30.07 "HgN/A
6:00 PM72 °FClear.12 mph44%30.07 "HgN/A
5:30 PM72 °FClear.12 mph47%30.07 "HgN/A
5:00 PM72 °FClear.14 mph47%30.07 "HgN/A
4:30 PM73 °FClear.10 mph38%30.07 "HgN/A
4:00 PM72 °FClear.8 mph47%30.07 "HgN/A
3:30 PM72 °FClear.7 mph44%30.07 "HgN/A
3:00 PM72 °FClear.9 mph41%30.07 "HgN/A
2:30 PM72 °FClear.8 mph47%30.07 "HgN/A
2:00 PM70 °FClear.8 mph46%30.07 "HgN/A
1:30 PM72 °FClear.8 mph47%30.07 "HgN/A
1:00 PM70 °FPartly sunny.7 mph50%30.07 "HgN/A
12:30 PM70 °FPartly sunny.6 mph50%30.07 "HgN/A
12:00 PM68 °FBroken clouds.6 mph60%30.07 "HgN/A
Weather by CustomWeather, © 2014

See weather overviewHow to use our weather pages